Regional Weather Roundup
Issued by NWS

Home | Current Version | Previous Version | Text Only | Print | Product List | Glossary On
Versions: 1 2 3 4 5 6 7 8 9 10 11 12 13 14 15 16 17 18 19 20 21 22 23 24 25 26 27 28 29 30 31 32 33 34 35 36 37 38 39 40 41 42 43 44 45 46 47 48 49 50
000
ASUS43 KMPX 172210
RWRMN
WEATHER ROUNDUP FOR MINNESOTA
NATIONAL WEATHER SERVICE TWIN CITIES/CHANHASSEN MN
400 PM CST WED JAN 17 2018


NOTE: "FAIR" INDICATES FEW OR NO CLOUDS BELOW 12,000 FEET WITH NO
SIGNIFICANT WEATHER AND/OR OBSTRUCTIONS TO VISIBILITY. N/A MEANS
CURRENT SKY AND/OR WEATHER CONDITIONS ARE NOT AVAILABLE.

MNZ060>063-068>070-172300-
   Twin Cities Metro

CITY           SKY/WX    TMP DP  RH WIND       PRES   REMARKS
TWIN CITIES    FAIR      27  13  55 SW14      30.12F WCI  16
ST PAUL        FAIR      26  11  52 SW10G17   30.13F WCI  16
CRYSTAL        FAIR      27  10  49 SW12G22   30.10F WCI  17
BLAINE         CLEAR     28  12  50 SW13      30.08F WCI  18
LAKEVILLE      FAIR      25  12  58 SW7       30.13S WCI  17
EDEN PRAIRIE   FAIR      27  13  55 SW13      30.11F WCI  16
SOUTH ST PAUL  FAIR      28  11  49 SW9G16    30.12F WCI  19
LAKE ELMO      FAIR      27  12  54 S9        30.11F WCI  17
$$
MNZ001>005-007-008-013>017-022>024-027-028-172300-
   Northwest Minnesota

CITY           SKY/WX    TMP DP  RH WIND       PRES   REMARKS
BEMIDJI        FAIR      28  15  60 W17       29.91R WCI  15
HALLOCK        FAIR      27  21  80 SW13      29.84S WCI  16
ROSEAU         FAIR      25  18  74 SW14      29.82R WCI  13
WARROAD        FAIR      25  16  68 SW13      29.81S WCI  13
THIEF RVR FALL FAIR      23  17  78 SW20      29.89F WCI   8
CROOKSTON      FAIR      25  19  80 SW13      29.93S WCI  13
FOSSTON        FAIR      23  14  68 S17       29.94S WCI   9
DETROIT LAKES  FAIR      28  18  64 SW10G16   30.00R WCI  19
MOORHEAD       FAIR      28  19  69 SW10      30.02S WCI  19
PARK RAPIDS    FAIR      26  15  63 W10       29.94R WCI  16
MAHNOMEN       FAIR      22  15  74 S12       29.97R WCI  10
$$
MNZ006-009>011-018-025>026-172300-
   North Central Minnesota

CITY           SKY/WX    TMP DP  RH WIND       PRES   REMARKS
BAUDETTE       FAIR      23  12  62 SW8       29.80S WCI  14
FLAG ISLAND    FAIR      23  12  63 SW10      29.77S WCI  12
INTL FALLS     FAIR      26  11  52 W8        29.81S WCI  18
WASKISH        FAIR      21  16  79 SW15      29.86F WCI   8
BIG FORK       FAIR      32  16  51 SW10G18   29.83F WCI  24
LONGVILLE      FAIR      28  10  47 SW8       29.91F WCI  20
GRAND RAPIDS   FAIR      32  14  47 SW8       29.90R WCI  25
CRANE LAKE     FAIR      30  12  47 SW3       29.82S
ORR            FAIR      30   9  40 SW6       29.79S WCI  24
COOK           FAIR      28  14  54 SW8       29.82F WCI  20
WALKER         FAIR      30  13  50 W17       29.91R WCI  18
$$
MNZ012-019>021-037-172300-
   Northeast Minnesota

CITY           SKY/WX    TMP DP  RH WIND       PRES   REMARKS
DULUTH         FAIR      26   9  48 W13       29.87F WCI  15
ELY            FAIR      27  12  54 W8        29.80S WCI  18
HIBBING        FAIR      28  13  53 VRB6      29.85F WCI  22
EVELETH        FAIR      28  10  47 SW13G18   29.85F WCI  17
DULUTH HARBOR  FAIR      27  12  54 SW22      29.92F WCI  12
TWO HARBORS    FAIR      36  12  38 SW10G23   29.83S
SILVER BAY     FAIR      34  10  37 SW8       29.80R WCI  27
GRAND MARAIS     N/A     33  28  81 SW26      29.78S WCI  20
G MARAIS ARPRT FAIR      27   9  46 W5        29.73S WCI  21
$$
MNZ029>031-032-039>041-046>048-054>057-064-172300-
   West Central Minnesota

CITY           SKY/WX    TMP DP  RH WIND       PRES   REMARKS
FERGUS FALLS   FAIR      28  19  69 W15       30.04S WCI  17
WHEATON        CLEAR     36  19  51 SW10      30.08
MORRIS         CLEAR     36  21  55 W10       30.05S
ALEXANDRIA     FAIR      32  17  54 W14       30.03S WCI  22
ELBOW LAKE     FAIR      31  21  65 SW10      30.04F HAZE    WCI  23
WADENA         FAIR      28  16  59 SW12G17   29.97F WCI  18
GLENWOOD       FAIR      32  19  59 SW8       30.05R WCI  25
APPLETON       CLEAR     37  21  52 W13       30.08S
BENSON         CLEAR     36  18  48 W13       30.08S
ORTONVILLE     CLEAR     36  19  51 W12       30.08R
MADISON        CLEAR     36  21  55 W14       30.10R
WILLMAR        FAIR      30  21  69 SW10      30.10F WCI  21
$$
MNZ033>034-036-042>043-049>051-058-059-172300-
   Central Minnesota

CITY           SKY/WX    TMP DP  RH WIND       PRES   REMARKS
ST CLOUD       FAIR      26  14  60 SW10      30.05F WCI  16
SAUK CENTRE      N/A     30  16  57 SW10      30.04S WCI  21
PAYNESVILLE    FAIR      30  18  59 SW10      30.06F WCI  21
AITKIN         FAIR      28   9  43 SW9       29.93S WCI  20
PINE RIVER     FAIR      28  12  50 SW9       29.97S WCI  20
BRAINERD       FAIR      29  11  47 SW17      29.96F WCI  17
STAPLES        FAIR      28  12  50 SW9       29.98F WCI  20
LONG PRAIRIE   FAIR      28  16  59 S8        30.02F WCI  20
LITTLE FALLS   FAIR      28   7  40 SW7       30.02F WCI  21
LITCHFIELD     FAIR      30  18  59 SW5       30.08S WCI  25
BUFFALO        FAIR      28  15  58 S14       30.09F WCI  16
MAPLE LAKE     FAIR      28  17  62 MISG      30.07F
HUTCHINSON     FAIR      30  18  60 SW12      30.11F WCI  20
$$
MNZ037-044-045-052-053-172300-
   East Central Minnesota

CITY           SKY/WX    TMP DP  RH WIND       PRES   REMARKS
PRINCETON      FAIR      27  12  54 SW8       30.05F WCI  18
MORA           FAIR      27  12  54 SW12      30.03S WCI  16
CAMBRIDGE      FAIR      27  12  54 SW12      30.05F WCI  16
RUSH CITY      FAIR      25  10  52 SW12G17   30.04F WCI  14
MOOSE LAKE     FAIR      28   9  43 SW9       29.94S WCI  20
HINCKLEY       FAIR      27  10  50 SW16G22   30.01S WCI  14
CLOQUET        FAIR      28   5  37 SW12G23   29.90F WCI  18
MCGREGOR       FAIR      28  10  47 SW9       29.94S WCI  20
$$
MNZ071>073-080-081-089-090-097-098-172300-
   Southwest Minnesota

CITY           SKY/WX    TMP DP  RH WIND       PRES   REMARKS
MONTEVIDEO     CLEAR     39  18  41 W9        30.10R
GRANITE FALLS  CLEAR     35  21  57 SW10      30.11S WCI  27
CANBY          CLEAR     34  19  54 SW14G28   30.10R WCI  24
MARSHALL       CLEAR     30  17  58 SW16G24   30.09F WCI  19
REDWOOD FALLS  CLEAR     30  16  56 SW12      30.12F WCI  20
OLIVIA         CLEAR     32  18  55 SW9       30.09F WCI  24
PIPESTONE      SUNNY     25  16  68 W12       30.16S WCI  14
WINDOM         CLEAR     28  10  47 SW22      30.15R WCI  15
WORTHINGTON    SUNNY     28  17  63 SW22      30.16R WCI  14
JACKSON        CLEAR     30  18  59 SW21      30.16S WCI  17
SLAYTON        CLEAR     26  17  68 SW21      30.14F WCI  12
$$
MNZ065>067-074>077-082>085-091>093-172300-
   South Central Minnesota

CITY           SKY/WX    TMP DP  RH WIND       PRES   REMARKS
MANKATO        FAIR      29  16  58 SW17      30.16R WCI  17
NEW ULM        CLEAR     30  18  59 SW10      30.15R WCI  21
ST JAMES       CLEAR     28  18  64 SW10      30.18R WCI  19
FAIRMONT       CLEAR     29  18  63 SW20      30.16R WCI  16
FARIBAULT      FAIR      25  16  68 S13G20    30.16R WCI  13
OWATONNA       FAIR      25  16  68 S17       30.14S WCI  11
WASECA         FAIR      25  16  68 SW16      30.18R WCI  12
ALBERT LEA     FAIR      25  12  58 SW14G22   30.17F WCI  13
$$
MNZ078>079-086>088-094>096-172300-
   Southeast Minnesota

CITY           SKY/WX    TMP DP  RH WIND       PRES   REMARKS
ROCHESTER      FAIR      21  13  71 S28G36    30.13F WCI   3
RED WING       FAIR      25   9  50 SW9       30.15S WCI  15
STANTON        FAIR      24  15  68 SW14      30.13F WCI  12
DODGE CENTER   FAIR      21  12  68 SW20      30.14S WCI   6
WINONA         FAIR      28  12  50 W7        30.18S WCI  21
AUSTIN         FAIR      23  12  63 SW17      30.19F WCI   9
PRESTON        FAIR      22  11  61 SW24G31   30.17F WCI   6
$$
ABBREVIATIONS USED IN REMARKS
   TC - TEMPERATURES IN CELSIUS
  WCI - WIND CHILL INDEX
   HX - HEAT INDEX
  VSB - VISIBILITY
$$




USA.gov is the U.S. government's official web portal to all federal, state and local government web resources and services.